User: anonymous   Login
Location: ??
(35.5052°N, 139.7262°E)
Time: 17:02:47
(UTC+00:00)
Language:

YAOGAN 11 DEB - Orbit

View from above orbital plane
View from above orbital plane
View from above satellite
View from above satellite

Ground track
Ground track

The orbit data is extracted from the following two-line orbital elements,

1 38174U 10047D   22023.74319102  .00000488  00000-0  15988-3 0  9995
2 38174  97.9772 120.0898 0207670  45.0623 104.6376 14.30818362585883
Epoch (UTC): 23 January 2022 17:50:11
Eccentricity: 0.0207670
inclination: 97.9772°
perigee height: 640 km
apogee height: 938 km
right ascension of ascending node: 120.0898°
argument of perigee: 45.0623°
revolutions per day: 14.30818362
mean anomaly at epoch: 104.6376°
orbit number at epoch: 58588

The dashed part of the orbit path shows where the satellite is in the earth's shadow,  

DLR